Year,Month,Day,Hour,Minute,Value (Times are PST for windgust in km/hr)
2010,06,04,00,00,3.20
2010,06,04,00,01,3.20
2010,06,04,00,02,1.60
2010,06,04,00,03,3.20
2010,06,04,00,04,1.60
2010,06,04,00,06,1.60
2010,06,04,00,07,3.20
2010,06,04,00,08,1.60
2010,06,04,00,09,1.60
2010,06,04,00,10,1.60
2010,06,04,00,11,1.60
2010,06,04,00,12,1.60
2010,06,04,00,14,1.60
2010,06,04,00,16,1.60
2010,06,04,00,17,1.60
2010,06,04,00,18,1.60
2010,06,04,00,19,1.60
2010,06,04,00,20,1.60
2010,06,04,00,25,1.60
2010,06,04,00,26,1.60
2010,06,04,00,27,3.20
2010,06,04,00,28,3.20
2010,06,04,00,29,3.20
2010,06,04,00,52,1.60
2010,06,04,00,53,1.60
2010,06,04,00,54,1.60
2010,06,04,00,55,1.60
2010,06,04,01,03,1.60
2010,06,04,01,04,1.60
2010,06,04,01,05,1.60
2010,06,04,01,06,3.20
2010,06,04,01,07,1.60
2010,06,04,01,08,1.60
2010,06,04,01,09,1.60
2010,06,04,01,10,4.80
2010,06,04,01,11,6.40
2010,06,04,01,12,1.60
2010,06,04,01,13,1.60
2010,06,04,01,14,3.20
2010,06,04,01,15,4.80
2010,06,04,01,16,4.80
2010,06,04,01,17,1.60
2010,06,04,01,18,3.20
2010,06,04,01,19,4.80
2010,06,04,01,20,6.40
2010,06,04,01,21,4.80
2010,06,04,01,22,3.20
2010,06,04,01,23,4.80
2010,06,04,01,24,3.20
2010,06,04,01,25,1.60
2010,06,04,01,26,3.20
2010,06,04,01,27,3.20
2010,06,04,01,28,3.20
2010,06,04,01,29,3.20
2010,06,04,01,30,1.60
2010,06,04,01,33,1.60
2010,06,04,01,34,3.20
2010,06,04,01,35,4.80
2010,06,04,01,36,4.80
2010,06,04,01,37,4.80
2010,06,04,01,38,3.20
2010,06,04,01,39,3.20
2010,06,04,01,40,3.20
2010,06,04,01,41,4.80
2010,06,04,01,42,4.80
2010,06,04,01,43,1.60
2010,06,04,01,44,3.20
2010,06,04,01,45,1.60
2010,06,04,01,46,4.80
2010,06,04,01,47,4.80
2010,06,04,01,48,6.40
2010,06,04,01,49,4.80
2010,06,04,01,50,3.20
2010,06,04,02,08,1.60
2010,06,04,02,12,1.60
2010,06,04,02,13,1.60
2010,06,04,02,14,1.60
2010,06,04,02,15,1.60
2010,06,04,02,18,1.60
2010,06,04,02,21,1.60
2010,06,04,02,22,1.60
2010,06,04,02,23,1.60
2010,06,04,02,30,1.60
2010,06,04,02,39,1.60
2010,06,04,02,40,1.60
2010,06,04,02,41,1.60
2010,06,04,02,42,1.60
2010,06,04,02,43,3.20
2010,06,04,03,01,1.60
2010,06,04,03,09,1.60
2010,06,04,03,10,1.60
2010,06,04,03,11,1.60
2010,06,04,03,12,1.60
2010,06,04,03,15,1.60
2010,06,04,03,16,1.60
2010,06,04,03,17,1.60
2010,06,04,03,35,1.60
2010,06,04,03,36,1.60
2010,06,04,03,37,1.60
2010,06,04,04,02,1.60
2010,06,04,04,03,1.60
2010,06,04,04,04,1.60
2010,06,04,04,05,1.60
2010,06,04,04,06,1.60
2010,06,04,04,07,3.20
2010,06,04,04,08,1.60
2010,06,04,04,19,1.60
2010,06,04,04,24,1.60
2010,06,04,04,25,3.20
2010,06,04,04,26,1.60
2010,06,04,04,27,1.60
2010,06,04,04,30,1.60
2010,06,04,04,31,1.60
2010,06,04,04,32,1.60
2010,06,04,04,33,1.60
2010,06,04,04,34,1.60
2010,06,04,04,35,1.60
2010,06,04,04,36,1.60
2010,06,04,04,41,1.60
2010,06,04,04,43,1.60
2010,06,04,04,46,1.60
2010,06,04,04,54,3.20
2010,06,04,04,55,1.60
2010,06,04,04,56,1.60
2010,06,04,04,57,1.60
2010,06,04,04,59,1.60
2010,06,04,05,04,1.60
2010,06,04,05,06,1.60
2010,06,04,05,16,1.60
2010,06,04,05,17,1.60
2010,06,04,05,25,1.60
2010,06,04,05,26,3.20
2010,06,04,05,28,1.60
2010,06,04,05,29,1.60
2010,06,04,05,31,1.60
2010,06,04,05,32,1.60
2010,06,04,05,33,3.20
2010,06,04,05,34,4.80
2010,06,04,05,35,1.60
2010,06,04,05,38,1.60
2010,06,04,05,39,1.60
2010,06,04,05,40,3.20
2010,06,04,05,41,1.60
2010,06,04,05,42,3.20
2010,06,04,05,43,1.60
2010,06,04,05,44,1.60
2010,06,04,05,45,3.20
2010,06,04,05,46,1.60
2010,06,04,05,47,1.60
2010,06,04,05,48,1.60
2010,06,04,05,50,1.60
2010,06,04,05,51,3.20
2010,06,04,05,52,3.20
2010,06,04,05,53,1.60
2010,06,04,05,55,1.60
2010,06,04,06,01,1.60
2010,06,04,06,05,1.60
2010,06,04,06,07,1.60
2010,06,04,06,08,3.20
2010,06,04,06,09,1.60
2010,06,04,06,10,1.60
2010,06,04,06,11,1.60
2010,06,04,06,12,1.60
2010,06,04,06,16,1.60
2010,06,04,06,17,3.20
2010,06,04,06,18,1.60
2010,06,04,06,20,1.60
2010,06,04,06,22,1.60
2010,06,04,06,23,1.60
2010,06,04,06,24,1.60
2010,06,04,06,27,1.60
2010,06,04,06,34,1.60
2010,06,04,06,35,1.60
2010,06,04,06,36,1.60
2010,06,04,06,37,1.60
2010,06,04,06,41,1.60
2010,06,04,06,43,1.60
2010,06,04,06,47,1.60
2010,06,04,06,48,1.60
2010,06,04,06,49,1.60
2010,06,04,06,51,3.20
2010,06,04,06,52,1.60
2010,06,04,06,53,1.60
2010,06,04,06,54,3.20
2010,06,04,06,55,1.60
2010,06,04,06,56,3.20
2010,06,04,06,57,1.60
2010,06,04,06,58,3.20
2010,06,04,06,59,1.60
2010,06,04,07,00,3.20
2010,06,04,07,01,3.20
2010,06,04,07,02,3.20
2010,06,04,07,03,1.60
2010,06,04,07,04,3.20
2010,06,04,07,05,1.60
2010,06,04,07,06,1.60
2010,06,04,07,09,1.60
2010,06,04,07,10,3.20
2010,06,04,07,11,1.60
2010,06,04,07,14,1.60
2010,06,04,07,15,1.60
2010,06,04,07,16,1.60
2010,06,04,07,17,1.60
2010,06,04,07,18,1.60
2010,06,04,07,19,1.60
2010,06,04,07,20,4.80
2010,06,04,07,21,4.80
2010,06,04,07,23,1.60
2010,06,04,07,24,3.20
2010,06,04,07,25,1.60
2010,06,04,07,26,3.20
2010,06,04,07,27,4.80
2010,06,04,07,28,4.80
2010,06,04,07,29,4.80
2010,06,04,07,30,3.20
2010,06,04,07,33,3.20
2010,06,04,07,34,3.20
2010,06,04,07,35,4.80
2010,06,04,07,36,4.80
2010,06,04,07,37,3.20
2010,06,04,07,38,6.40
2010,06,04,07,39,6.40
2010,06,04,07,40,6.40
2010,06,04,07,41,3.20
2010,06,04,07,42,4.80
2010,06,04,07,43,4.80
2010,06,04,07,44,3.20
2010,06,04,07,46,1.60
2010,06,04,07,47,1.60
2010,06,04,07,48,1.60
2010,06,04,07,49,1.60
2010,06,04,07,50,3.20
2010,06,04,07,51,6.40
2010,06,04,07,52,1.60
2010,06,04,07,53,1.60
2010,06,04,07,54,1.60
2010,06,04,07,55,3.20
2010,06,04,07,56,1.60
2010,06,04,07,57,1.60
2010,06,04,07,58,3.20
2010,06,04,08,00,3.20
2010,06,04,08,01,3.20
2010,06,04,08,02,4.80
2010,06,04,08,03,4.80
2010,06,04,08,04,4.80
2010,06,04,08,05,1.60
2010,06,04,08,06,3.20
2010,06,04,08,07,3.20
2010,06,04,08,08,3.20
2010,06,04,08,09,3.20
2010,06,04,08,10,3.20
2010,06,04,08,11,1.60
2010,06,04,08,12,4.80
2010,06,04,08,13,4.80
2010,06,04,08,14,3.20
2010,06,04,08,15,8.10
2010,06,04,08,16,4.80
2010,06,04,08,17,3.20
2010,06,04,08,18,4.80
2010,06,04,08,19,4.80
2010,06,04,08,20,3.20
2010,06,04,08,24,3.20
2010,06,04,08,25,1.60
2010,06,04,08,26,4.80
2010,06,04,08,27,4.80
2010,06,04,08,28,3.20
2010,06,04,08,29,4.80
2010,06,04,08,30,6.40
2010,06,04,08,31,4.80
2010,06,04,08,32,4.80
2010,06,04,08,33,3.20
2010,06,04,08,34,6.40
2010,06,04,08,35,9.60
2010,06,04,08,36,3.20
2010,06,04,08,37,6.40
2010,06,04,08,38,6.40
2010,06,04,08,39,6.40
2010,06,04,08,40,8.10
2010,06,04,08,41,8.10
2010,06,04,08,42,6.40
2010,06,04,08,43,3.20
2010,06,04,08,44,11.30
2010,06,04,08,45,6.40
2010,06,04,08,46,9.60
2010,06,04,08,47,9.60
2010,06,04,08,48,11.30
2010,06,04,08,49,8.10
2010,06,04,08,50,8.10
2010,06,04,08,51,8.10
2010,06,04,08,52,6.40
2010,06,04,08,53,6.40
2010,06,04,08,54,6.40
2010,06,04,08,55,6.40
2010,06,04,08,56,9.60
2010,06,04,08,57,9.60
2010,06,04,08,58,8.10
2010,06,04,08,59,6.40
2010,06,04,09,00,8.10
2010,06,04,09,01,8.10
2010,06,04,09,02,8.10
2010,06,04,09,03,6.40
2010,06,04,09,04,6.40
2010,06,04,09,05,3.20
2010,06,04,09,06,3.20
2010,06,04,09,07,3.20
2010,06,04,09,08,4.80
2010,06,04,09,09,6.40
2010,06,04,09,10,3.20
2010,06,04,09,12,3.20
2010,06,04,09,13,1.60
2010,06,04,09,14,4.80
2010,06,04,09,15,8.10
2010,06,04,09,16,4.80
2010,06,04,09,17,3.20
2010,06,04,09,18,3.20
2010,06,04,09,19,9.60
2010,06,04,09,20,6.40
2010,06,04,09,21,4.80
2010,06,04,09,22,8.10
2010,06,04,09,23,4.80
2010,06,04,09,24,4.80
2010,06,04,09,25,6.40
2010,06,04,09,26,6.40
2010,06,04,09,27,8.10
2010,06,04,09,28,6.40
2010,06,04,09,29,3.20
2010,06,04,09,30,4.80
2010,06,04,09,31,6.40
2010,06,04,09,32,3.20
2010,06,04,09,33,4.80
2010,06,04,09,34,4.80
2010,06,04,09,35,4.80
2010,06,04,09,36,1.60
2010,06,04,09,37,3.20
2010,06,04,09,38,1.60
2010,06,04,09,39,3.20
2010,06,04,09,40,6.40
2010,06,04,09,41,8.10
2010,06,04,09,42,6.40
2010,06,04,09,43,6.40
2010,06,04,09,44,8.10
2010,06,04,09,45,4.80
2010,06,04,09,46,8.10
2010,06,04,09,47,3.20
2010,06,04,09,48,3.20
2010,06,04,09,49,4.80
2010,06,04,09,50,9.60
2010,06,04,09,51,8.10
2010,06,04,09,52,1.60
2010,06,04,09,53,1.60
2010,06,04,09,54,1.60
2010,06,04,09,55,1.60
2010,06,04,09,57,1.60
2010,06,04,09,58,3.20
2010,06,04,09,59,8.10
2010,06,04,10,00,4.80
2010,06,04,10,01,8.10
2010,06,04,10,02,3.20
2010,06,04,10,03,9.60
2010,06,04,10,04,8.10
2010,06,04,10,05,6.40
2010,06,04,10,06,8.10
2010,06,04,10,07,8.10
2010,06,04,10,08,9.60
2010,06,04,10,09,11.30
2010,06,04,10,10,9.60
2010,06,04,10,11,9.60
2010,06,04,10,12,11.30
2010,06,04,10,13,9.60
2010,06,04,10,14,9.60
2010,06,04,10,15,8.10
2010,06,04,10,16,8.10
2010,06,04,10,17,11.30
2010,06,04,10,18,17.70
2010,06,04,10,19,12.90
2010,06,04,10,20,14.50
2010,06,04,10,21,9.60
2010,06,04,10,22,11.30
2010,06,04,10,23,9.60
2010,06,04,10,24,11.30
2010,06,04,10,25,14.50
2010,06,04,10,26,11.30
2010,06,04,10,27,12.90
2010,06,04,10,28,11.30
2010,06,04,10,29,6.40
2010,06,04,10,30,8.10
2010,06,04,10,31,14.50
2010,06,04,10,32,11.30
2010,06,04,10,33,8.10
2010,06,04,10,34,4.80
2010,06,04,10,35,4.80
2010,06,04,10,36,14.50
2010,06,04,10,37,12.90
2010,06,04,10,38,16.10
2010,06,04,10,39,11.30
2010,06,04,10,40,19.30
2010,06,04,10,41,16.10
2010,06,04,10,42,8.10
2010,06,04,10,43,9.60
2010,06,04,10,44,16.10
2010,06,04,10,45,19.30
2010,06,04,10,46,20.90
2010,06,04,10,47,16.10
2010,06,04,10,48,8.10
2010,06,04,10,49,6.40
2010,06,04,10,50,8.10
2010,06,04,10,51,3.20
2010,06,04,10,52,4.80
2010,06,04,10,53,14.50
2010,06,04,10,54,9.60
2010,06,04,10,55,12.90
2010,06,04,10,56,14.50
2010,06,04,10,57,8.10
2010,06,04,10,58,8.10
2010,06,04,10,59,9.60
2010,06,04,11,00,6.40
2010,06,04,11,01,9.60
2010,06,04,11,02,4.80
2010,06,04,11,03,4.80
2010,06,04,11,04,6.40
2010,06,04,11,05,9.60
2010,06,04,11,06,11.30
2010,06,04,11,07,9.60
2010,06,04,11,08,16.10
2010,06,04,11,09,12.90
2010,06,04,11,10,11.30
2010,06,04,11,11,4.80
2010,06,04,11,12,9.60
2010,06,04,11,13,8.10
2010,06,04,11,14,8.10
2010,06,04,11,15,17.70
2010,06,04,11,16,14.50
2010,06,04,11,17,25.70
2010,06,04,11,18,20.90
2010,06,04,11,19,9.60
2010,06,04,11,20,11.30
2010,06,04,11,21,17.70
2010,06,04,11,22,19.30
2010,06,04,11,23,12.90
2010,06,04,11,24,6.40
2010,06,04,11,25,9.60
2010,06,04,11,26,19.30
2010,06,04,11,27,20.90
2010,06,04,11,28,14.50
2010,06,04,11,29,24.20
2010,06,04,11,30,22.50
2010,06,04,11,31,22.50
2010,06,04,11,32,19.30
2010,06,04,11,33,12.90
2010,06,04,11,34,9.60
2010,06,04,11,35,19.30
2010,06,04,11,36,9.60
2010,06,04,11,37,22.50
2010,06,04,11,38,16.10
2010,06,04,11,39,16.10
2010,06,04,11,40,17.70
2010,06,04,11,41,16.10
2010,06,04,11,42,27.40
2010,06,04,11,43,22.50
2010,06,04,11,44,16.10
2010,06,04,11,45,12.90
2010,06,04,11,46,17.70
2010,06,04,11,47,22.50
2010,06,04,11,48,29.00
2010,06,04,11,49,19.30
2010,06,04,11,50,17.70
2010,06,04,11,51,11.30
2010,06,04,11,52,11.30
2010,06,04,11,53,11.30
2010,06,04,11,54,14.50
2010,06,04,11,55,11.30
2010,06,04,11,56,11.30
2010,06,04,11,57,17.70
2010,06,04,11,58,9.60
2010,06,04,11,59,8.10
2010,06,04,12,00,9.60
2010,06,04,12,01,17.70
2010,06,04,12,02,8.10
2010,06,04,12,03,9.60
2010,06,04,12,04,12.90
2010,06,04,12,05,14.50
2010,06,04,12,06,11.30
2010,06,04,12,07,14.50
2010,06,04,12,08,14.50
2010,06,04,12,09,20.90
2010,06,04,12,10,11.30
2010,06,04,12,11,25.70
2010,06,04,12,12,25.70
2010,06,04,12,13,20.90
2010,06,04,12,14,20.90
2010,06,04,12,15,22.50
2010,06,04,12,16,22.50
2010,06,04,12,17,8.10
2010,06,04,12,18,19.30
2010,06,04,12,19,22.50
2010,06,04,12,20,20.90
2010,06,04,12,21,17.70
2010,06,04,12,22,19.30
2010,06,04,12,23,24.20
2010,06,04,12,24,8.10
2010,06,04,12,25,9.60
2010,06,04,12,26,8.10
2010,06,04,12,27,14.50
2010,06,04,12,28,14.50
2010,06,04,12,29,16.10
2010,06,04,12,30,20.90
2010,06,04,12,31,14.50
2010,06,04,12,32,11.30
2010,06,04,12,33,19.30
2010,06,04,12,34,16.10
2010,06,04,12,35,16.10
2010,06,04,12,36,20.90
2010,06,04,12,37,19.30
2010,06,04,12,38,14.50
2010,06,04,12,39,30.60
2010,06,04,12,40,24.20
2010,06,04,12,41,24.20
2010,06,04,12,42,17.70
2010,06,04,12,43,22.50
2010,06,04,12,44,11.30
2010,06,04,12,45,16.10
2010,06,04,12,46,20.90
2010,06,04,12,47,11.30
2010,06,04,12,48,16.10
2010,06,04,12,49,14.50
2010,06,04,12,50,6.40
2010,06,04,12,51,16.10
2010,06,04,12,52,11.30
2010,06,04,12,53,8.10
2010,06,04,12,54,24.20
2010,06,04,12,55,16.10
2010,06,04,12,56,17.70
2010,06,04,12,57,11.30
2010,06,04,12,58,19.30
2010,06,04,12,59,17.70
2010,06,04,13,00,17.70
2010,06,04,13,01,24.20
2010,06,04,13,02,22.50
2010,06,04,13,03,14.50
2010,06,04,13,04,14.50
2010,06,04,13,05,16.10
2010,06,04,13,06,17.70
2010,06,04,13,07,14.50
2010,06,04,13,08,16.10
2010,06,04,13,09,16.10
2010,06,04,13,10,22.50
2010,06,04,13,11,16.10
2010,06,04,13,12,16.10
2010,06,04,13,13,12.90
2010,06,04,13,14,16.10
2010,06,04,13,15,12.90
2010,06,04,13,16,20.90
2010,06,04,13,17,19.30
2010,06,04,13,18,11.30
2010,06,04,13,19,22.50
2010,06,04,13,20,14.50
2010,06,04,13,21,17.70
2010,06,04,13,22,25.70
2010,06,04,13,23,27.40
2010,06,04,13,24,19.30
2010,06,04,13,25,9.60
2010,06,04,13,26,20.90
2010,06,04,13,27,17.70
2010,06,04,13,28,17.70
2010,06,04,13,29,19.30
2010,06,04,13,30,27.40
2010,06,04,13,31,17.70
2010,06,04,13,32,19.30
2010,06,04,13,33,22.50
2010,06,04,13,34,17.70
2010,06,04,13,35,9.60
2010,06,04,13,36,19.30
2010,06,04,13,37,17.70
2010,06,04,13,38,14.50
2010,06,04,13,39,9.60
2010,06,04,13,40,9.60
2010,06,04,13,41,20.90
2010,06,04,13,42,17.70
2010,06,04,13,43,20.90
2010,06,04,13,44,19.30
2010,06,04,13,45,22.50
2010,06,04,13,46,24.20
2010,06,04,13,47,24.20
2010,06,04,13,48,16.10
2010,06,04,13,49,17.70
2010,06,04,13,50,19.30
2010,06,04,13,51,22.50
2010,06,04,13,52,12.90
2010,06,04,13,53,16.10
2010,06,04,13,54,25.70
2010,06,04,13,55,20.90
2010,06,04,13,56,19.30
2010,06,04,13,57,20.90
2010,06,04,13,58,19.30
2010,06,04,13,59,20.90
2010,06,04,14,00,17.70
2010,06,04,14,01,20.90
2010,06,04,14,02,9.60
2010,06,04,14,03,22.50
2010,06,04,14,04,20.90
2010,06,04,14,05,22.50
2010,06,04,14,06,27.40
2010,06,04,14,07,20.90
2010,06,04,14,08,24.20
2010,06,04,14,09,22.50
2010,06,04,14,10,22.50
2010,06,04,14,11,19.30
2010,06,04,14,12,29.00
2010,06,04,14,13,24.20
2010,06,04,14,14,25.70
2010,06,04,14,15,24.20
2010,06,04,14,16,22.50
2010,06,04,14,17,24.20
2010,06,04,14,18,29.00
2010,06,04,14,19,27.40
2010,06,04,14,20,20.90
2010,06,04,14,21,24.20
2010,06,04,14,22,19.30
2010,06,04,14,23,20.90
2010,06,04,14,24,19.30
2010,06,04,14,25,16.10
2010,06,04,14,26,17.70
2010,06,04,14,27,20.90
2010,06,04,14,28,27.40
2010,06,04,14,29,20.90
2010,06,04,14,30,20.90
2010,06,04,14,31,24.20
2010,06,04,14,32,24.20
2010,06,04,14,33,22.50
2010,06,04,14,34,24.20
2010,06,04,14,35,22.50
2010,06,04,14,36,29.00
2010,06,04,14,37,27.40
2010,06,04,14,38,32.20
2010,06,04,14,39,27.40
2010,06,04,14,40,32.20
2010,06,04,14,41,24.20
2010,06,04,14,42,16.10
2010,06,04,14,43,17.70
2010,06,04,14,44,32.20
2010,06,04,14,45,29.00
2010,06,04,14,46,27.40
2010,06,04,14,47,20.90
2010,06,04,14,48,17.70
2010,06,04,14,49,27.40
2010,06,04,14,50,20.90
2010,06,04,14,51,17.70
2010,06,04,14,52,25.70
2010,06,04,14,53,22.50
2010,06,04,14,54,29.00
2010,06,04,14,55,24.20
2010,06,04,14,56,29.00
2010,06,04,14,57,19.30
2010,06,04,14,58,22.50
2010,06,04,14,59,27.40
2010,06,04,15,00,20.90
2010,06,04,15,01,22.50
2010,06,04,15,02,37.00
2010,06,04,15,03,33.80
2010,06,04,15,04,20.90
2010,06,04,15,05,16.10
2010,06,04,15,06,29.00
2010,06,04,15,07,19.30
2010,06,04,15,08,20.90
2010,06,04,15,09,19.30
2010,06,04,15,10,24.20
2010,06,04,15,11,19.30
2010,06,04,15,12,25.70
2010,06,04,15,13,20.90
2010,06,04,15,14,27.40
2010,06,04,15,15,29.00
2010,06,04,15,16,25.70
2010,06,04,15,17,22.50
2010,06,04,15,18,24.20
2010,06,04,15,19,33.80
2010,06,04,15,20,32.20
2010,06,04,15,21,17.70
2010,06,04,15,22,22.50
2010,06,04,15,23,22.50
2010,06,04,15,24,19.30
2010,06,04,15,25,24.20
2010,06,04,15,26,9.60
2010,06,04,15,27,17.70
2010,06,04,15,28,17.70
2010,06,04,15,29,27.40
2010,06,04,15,30,30.60
2010,06,04,15,31,25.70
2010,06,04,15,32,19.30
2010,06,04,15,33,29.00
2010,06,04,15,34,25.70
2010,06,04,15,35,32.20
2010,06,04,15,36,25.70
2010,06,04,15,37,22.50
2010,06,04,15,38,20.90
2010,06,04,15,39,25.70
2010,06,04,15,40,19.30
2010,06,04,15,41,20.90
2010,06,04,15,42,14.50
2010,06,04,15,43,20.90
2010,06,04,15,44,22.50
2010,06,04,15,45,33.80
2010,06,04,15,46,27.40
2010,06,04,15,47,20.90
2010,06,04,15,48,17.70
2010,06,04,15,49,22.50
2010,06,04,15,50,27.40
2010,06,04,15,51,29.00
2010,06,04,15,52,30.60
2010,06,04,15,53,25.70
2010,06,04,15,54,17.70
2010,06,04,15,55,22.50
2010,06,04,15,56,25.70
2010,06,04,15,57,20.90
2010,06,04,15,58,22.50
2010,06,04,15,59,24.20
2010,06,04,16,00,25.70
2010,06,04,16,01,27.40
2010,06,04,16,02,25.70
2010,06,04,16,03,25.70
2010,06,04,16,04,20.90
2010,06,04,16,05,19.30
2010,06,04,16,06,29.00
2010,06,04,16,07,27.40
2010,06,04,16,08,19.30
2010,06,04,16,09,30.60
2010,06,04,16,10,30.60
2010,06,04,16,11,22.50
2010,06,04,16,12,33.80
2010,06,04,16,13,37.00
2010,06,04,16,14,25.70
2010,06,04,16,15,22.50
2010,06,04,16,16,27.40
2010,06,04,16,17,20.90
2010,06,04,16,18,25.70
2010,06,04,16,19,27.40
2010,06,04,16,20,30.60
2010,06,04,16,21,27.40
2010,06,04,16,22,27.40
2010,06,04,16,23,17.70
2010,06,04,16,24,22.50
2010,06,04,16,25,25.70
2010,06,04,16,26,29.00
2010,06,04,16,27,27.40
2010,06,04,16,28,25.70
2010,06,04,16,29,20.90
2010,06,04,16,30,24.20
2010,06,04,16,31,24.20
2010,06,04,16,32,30.60
2010,06,04,16,33,17.70
2010,06,04,16,34,24.20
2010,06,04,16,35,25.70
2010,06,04,16,36,27.40
2010,06,04,16,37,30.60
2010,06,04,16,38,25.70
2010,06,04,16,39,27.40
2010,06,04,16,40,20.90
2010,06,04,16,41,22.50
2010,06,04,16,42,19.30
2010,06,04,16,43,25.70
2010,06,04,16,44,17.70
2010,06,04,16,45,17.70
2010,06,04,16,46,22.50
2010,06,04,16,47,32.20
2010,06,04,16,48,27.40
2010,06,04,16,49,33.80
2010,06,04,16,50,27.40
2010,06,04,16,51,24.20
2010,06,04,16,52,27.40
2010,06,04,16,53,27.40
2010,06,04,16,54,37.00
2010,06,04,16,55,29.00
2010,06,04,16,56,35.40
2010,06,04,16,57,32.20
2010,06,04,16,58,27.40
2010,06,04,16,59,24.20
2010,06,04,17,00,33.80
2010,06,04,17,01,27.40
2010,06,04,17,02,24.20
2010,06,04,17,03,24.20
2010,06,04,17,04,32.20
2010,06,04,17,05,25.70
2010,06,04,17,06,37.00
2010,06,04,17,07,37.00
2010,06,04,17,08,20.90
2010,06,04,17,09,17.70
2010,06,04,17,10,22.50
2010,06,04,17,11,22.50
2010,06,04,17,12,22.50
2010,06,04,17,13,17.70
2010,06,04,17,14,22.50
2010,06,04,17,15,19.30
2010,06,04,17,16,25.70
2010,06,04,17,17,17.70
2010,06,04,17,18,30.60
2010,06,04,17,19,19.30
2010,06,04,17,20,24.20
2010,06,04,17,21,20.90
2010,06,04,17,22,17.70
2010,06,04,17,23,19.30
2010,06,04,17,24,12.90
2010,06,04,17,25,14.50
2010,06,04,17,26,25.70
2010,06,04,17,27,17.70
2010,06,04,17,28,19.30
2010,06,04,17,29,27.40
2010,06,04,17,30,17.70
2010,06,04,17,31,20.90
2010,06,04,17,32,37.00
2010,06,04,17,33,25.70
2010,06,04,17,34,17.70
2010,06,04,17,35,29.00
2010,06,04,17,36,27.40
2010,06,04,17,37,16.10
2010,06,04,17,38,30.60
2010,06,04,17,39,24.20
2010,06,04,17,40,17.70
2010,06,04,17,41,12.90
2010,06,04,17,42,19.30
2010,06,04,17,43,24.20
2010,06,04,17,44,20.90
2010,06,04,17,45,9.60
2010,06,04,17,46,16.10
2010,06,04,17,47,9.60
2010,06,04,17,48,19.30
2010,06,04,17,49,30.60
2010,06,04,17,50,19.30
2010,06,04,17,51,19.30
2010,06,04,17,52,22.50
2010,06,04,17,53,27.40
2010,06,04,17,54,17.70
2010,06,04,17,55,20.90
2010,06,04,17,56,24.20
2010,06,04,17,57,22.50
2010,06,04,17,58,19.30
2010,06,04,17,59,22.50
2010,06,04,18,00,24.20
2010,06,04,18,01,25.70
2010,06,04,18,02,16.10
2010,06,04,18,03,14.50
2010,06,04,18,04,17.70
2010,06,04,18,05,19.30
2010,06,04,18,06,17.70
2010,06,04,18,07,22.50
2010,06,04,18,08,24.20
2010,06,04,18,09,29.00
2010,06,04,18,10,22.50
2010,06,04,18,11,19.30
2010,06,04,18,12,19.30
2010,06,04,18,13,27.40
2010,06,04,18,14,24.20
2010,06,04,18,15,33.80
2010,06,04,18,16,24.20
2010,06,04,18,17,25.70
2010,06,04,18,18,27.40
2010,06,04,18,19,25.70
2010,06,04,18,20,33.80
2010,06,04,18,21,30.60
2010,06,04,18,22,20.90
2010,06,04,18,23,20.90
2010,06,04,18,24,25.70
2010,06,04,18,25,25.70
2010,06,04,18,26,24.20
2010,06,04,18,27,27.40
2010,06,04,18,28,40.20
2010,06,04,18,29,30.60
2010,06,04,18,30,30.60
2010,06,04,18,31,41.80
2010,06,04,18,32,27.40
2010,06,04,18,33,24.20
2010,06,04,18,34,24.20
2010,06,04,18,35,22.50
2010,06,04,18,36,20.90
2010,06,04,18,37,32.20
2010,06,04,18,38,22.50
2010,06,04,18,39,25.70
2010,06,04,18,40,19.30
2010,06,04,18,41,17.70
2010,06,04,18,42,19.30
2010,06,04,18,43,22.50
2010,06,04,18,44,14.50
2010,06,04,18,45,20.90
2010,06,04,18,46,19.30
2010,06,04,18,47,19.30
2010,06,04,18,48,29.00
2010,06,04,18,49,19.30
2010,06,04,18,50,17.70
2010,06,04,18,51,14.50
2010,06,04,18,52,20.90
2010,06,04,18,53,16.10
2010,06,04,18,54,17.70
2010,06,04,18,55,25.70
2010,06,04,18,56,22.50
2010,06,04,18,57,25.70
2010,06,04,18,58,22.50
2010,06,04,18,59,24.20
2010,06,04,19,00,29.00
2010,06,04,19,01,24.20
2010,06,04,19,02,24.20
2010,06,04,19,03,29.00
2010,06,04,19,04,22.50
2010,06,04,19,05,29.00
2010,06,04,19,06,17.70
2010,06,04,19,07,17.70
2010,06,04,19,08,19.30
2010,06,04,19,09,19.30
2010,06,04,19,10,17.70
2010,06,04,19,11,8.10
2010,06,04,19,12,20.90
2010,06,04,19,13,14.50
2010,06,04,19,14,19.30
2010,06,04,19,15,19.30
2010,06,04,19,16,22.50
2010,06,04,19,17,19.30
2010,06,04,19,18,14.50
2010,06,04,19,19,16.10
2010,06,04,19,20,16.10
2010,06,04,19,21,22.50
2010,06,04,19,22,20.90
2010,06,04,19,23,22.50
2010,06,04,19,24,24.20
2010,06,04,19,25,29.00
2010,06,04,19,26,32.20
2010,06,04,19,27,20.90
2010,06,04,19,28,19.30
2010,06,04,19,29,16.10
2010,06,04,19,30,14.50
2010,06,04,19,31,22.50
2010,06,04,19,32,22.50
2010,06,04,19,33,17.70
2010,06,04,19,34,17.70
2010,06,04,19,35,12.90
2010,06,04,19,36,19.30
2010,06,04,19,37,22.50
2010,06,04,19,38,22.50
2010,06,04,19,39,19.30
2010,06,04,19,40,16.10
2010,06,04,19,41,16.10
2010,06,04,19,42,27.40
2010,06,04,19,43,22.50
2010,06,04,19,44,14.50
2010,06,04,19,45,22.50
2010,06,04,19,46,25.70
2010,06,04,19,47,17.70
2010,06,04,19,48,20.90
2010,06,04,19,49,19.30
2010,06,04,19,50,24.20
2010,06,04,19,51,20.90
2010,06,04,19,52,17.70
2010,06,04,19,53,22.50
2010,06,04,19,54,19.30
2010,06,04,19,55,27.40
2010,06,04,19,56,22.50
2010,06,04,19,57,17.70
2010,06,04,19,58,30.60
2010,06,04,19,59,16.10
2010,06,04,20,00,17.70
2010,06,04,20,01,16.10
2010,06,04,20,02,22.50
2010,06,04,20,03,9.60
2010,06,04,20,04,22.50
2010,06,04,20,05,20.90
2010,06,04,20,06,17.70
2010,06,04,20,07,19.30
2010,06,04,20,08,20.90
2010,06,04,20,09,8.10
2010,06,04,20,10,16.10
2010,06,04,20,11,11.30
2010,06,04,20,12,20.90
2010,06,04,20,13,16.10
2010,06,04,20,14,22.50
2010,06,04,20,15,25.70
2010,06,04,20,16,14.50
2010,06,04,20,17,19.30
2010,06,04,20,18,11.30
2010,06,04,20,19,16.10
2010,06,04,20,20,17.70
2010,06,04,20,21,14.50
2010,06,04,20,22,9.60
2010,06,04,20,23,16.10
2010,06,04,20,24,16.10
2010,06,04,20,25,12.90
2010,06,04,20,26,14.50
2010,06,04,20,27,9.60
2010,06,04,20,28,9.60
2010,06,04,20,29,6.40
2010,06,04,20,30,8.10
2010,06,04,20,31,6.40
2010,06,04,20,32,6.40
2010,06,04,20,33,8.10
2010,06,04,20,34,6.40
2010,06,04,20,35,6.40
2010,06,04,20,36,9.60
2010,06,04,20,37,8.10
2010,06,04,20,38,6.40
2010,06,04,20,39,6.40
2010,06,04,20,40,16.10
2010,06,04,20,41,9.60
2010,06,04,20,42,11.30
2010,06,04,20,43,11.30
2010,06,04,20,44,8.10
2010,06,04,20,45,8.10
2010,06,04,20,46,9.60
2010,06,04,20,47,16.10
2010,06,04,20,48,9.60
2010,06,04,20,49,8.10
2010,06,04,20,50,8.10
2010,06,04,20,51,12.90
2010,06,04,20,52,9.60
2010,06,04,20,53,9.60
2010,06,04,20,54,12.90
2010,06,04,20,55,6.40
2010,06,04,20,56,3.20
2010,06,04,20,57,9.60
2010,06,04,20,58,8.10
2010,06,04,20,59,9.60
2010,06,04,21,00,11.30
2010,06,04,21,01,8.10
2010,06,04,21,02,11.30
2010,06,04,21,03,4.80
2010,06,04,21,04,6.40
2010,06,04,21,05,9.60
2010,06,04,21,06,14.50
2010,06,04,21,07,8.10
2010,06,04,21,08,8.10
2010,06,04,21,09,11.30
2010,06,04,21,10,6.40
2010,06,04,21,11,14.50
2010,06,04,21,12,9.60
2010,06,04,21,13,6.40
2010,06,04,21,14,4.80
2010,06,04,21,15,8.10
2010,06,04,21,16,11.30
2010,06,04,21,17,14.50
2010,06,04,21,18,12.90
2010,06,04,21,19,17.70
2010,06,04,21,20,19.30
2010,06,04,21,21,14.50
2010,06,04,21,22,16.10
2010,06,04,21,23,8.10
2010,06,04,21,24,14.50
2010,06,04,21,25,11.30
2010,06,04,21,26,16.10
2010,06,04,21,27,17.70
2010,06,04,21,28,12.90
2010,06,04,21,29,11.30
2010,06,04,21,30,6.40
2010,06,04,21,31,8.10
2010,06,04,21,32,9.60
2010,06,04,21,33,16.10
2010,06,04,21,34,14.50
2010,06,04,21,35,8.10
2010,06,04,21,36,14.50
2010,06,04,21,37,16.10
2010,06,04,21,38,16.10
2010,06,04,21,39,8.10
2010,06,04,21,40,12.90
2010,06,04,21,41,9.60
2010,06,04,21,42,12.90
2010,06,04,21,43,19.30
2010,06,04,21,44,16.10